Weather History for LEJR - November, 2012

Change the Weather History Date:

Monday, November 26, 2012

  Actual Average Record
Temperature  
Mean Temperature 62 °F -  
Max Temperature 70 °F 61 °F 70 °F (2012)
Min Temperature 53 °F 44 °F 31 °F (2013)
Degree Days  
Heating Degree Days 4    
Growing Degree Days 12 (Base 50)    
Moisture  
Dew Point 53 °F    
Average Humidity 82    
Maximum Humidity 100    
Minimum Humidity 60    
Precipitation  
Precipitation 0.00 in 0.14 in - ()
Sea Level Pressure  
Sea Level Pressure 29.97 in    
Wind  
Wind Speed 5 mph ()    
Max Wind Speed 10 mph    
Max Gust Speed -    
Visibility 7.2 miles    
Events Rain    
Averages and records for this station are not official NWS values.
T = Trace of Precipitation, MM = Missing Value Source: Averaged Metar Reports

Daily Weather History Graph

Daily Weather History Graph

Search for Another Location

Airport or City:

Trip Planner

Search our weather history database for the weather conditions in past years. The results will help you decide how hot, cold, wet, or windy it might be!

Date:

Astronomy

Nov. 26, 2012 Rise Set
Actual Time 8:13 AM CET 6:09 PM CET
Civil Twilight 7:45 AM CET 6:37 PM CET
Nautical Twilight 7:13 AM CET 7:09 PM CET
Astronomical Twilight 6:42 AM CET 7:40 PM CET
Moon 4:51 PM CET (11/26) 6:12 AM CET (11/26)
Length of Visible Light 10h 52m
Length of Day
9h 55m
Waxing Gibbous, 96% of the Moon is Illuminated
Nov 26
Waxing Gibbous
Nov 28
Full
Dec 6
Last Quarter
Dec 13
New
Dec 20
First Quarter

Hourly Weather History & Observations

Time (CET) Temp. Dew Point Humidity Pressure Visibility Wind Dir Wind Speed Gust Speed Precip Events Conditions
1:00 AM 58 °F 57 °F 94% 30.02 in - NE 3.5 mph - -  
5:00 AM 57.2 °F 55.4 °F 94% 29.98 in - North 3.5 mph - N/A   Clear
5:30 AM 57.2 °F 55.4 °F 94% 29.98 in - NW 6.9 mph - N/A   Clear
6:00 AM 55.4 °F 55.4 °F 100% 29.98 in - North 8.1 mph - N/A   Clear
6:30 AM 55.4 °F 55.4 °F 100% 29.98 in - North 5.8 mph - N/A   Clear
7:00 AM 55 °F 55 °F 98% 29.99 in - NNE 2.3 mph - -  
7:00 AM 55.4 °F 53.6 °F 94% 29.98 in - Variable 1.2 mph - N/A   Clear
7:30 AM 55.4 °F 53.6 °F 94% 29.98 in - Calm Calm - N/A   Clear
8:00 AM 53.6 °F 53.6 °F 100% 29.98 in - Calm Calm - N/A   Clear
8:30 AM 53.6 °F 53.6 °F 100% 29.98 in - Calm Calm - N/A   Clear
9:00 AM 55.4 °F 55.4 °F 100% 30.01 in - Calm Calm - N/A   Clear
9:30 AM 57.2 °F 55.4 °F 94% 30.01 in - North 4.6 mph - N/A   Clear
10:00 AM 57.2 °F 55.4 °F 94% 30.01 in - NNW 9.2 mph - N/A   Clear
10:30 AM 59.0 °F 57.2 °F 94% 30.01 in - North 4.6 mph - N/A   Clear
11:00 AM 60.8 °F 55.4 °F 82% 30.01 in - NNE 8.1 mph - N/A   Clear
11:30 AM 62.6 °F 57.2 °F 82% 30.01 in - North 8.1 mph - N/A   Clear
12:00 PM 66.2 °F 55.4 °F 68% 30.01 in - North 8.1 mph - N/A   Clear
12:30 PM 66.2 °F 55.4 °F 68% 30.01 in - North 8.1 mph - N/A   Clear
1:00 PM 67 °F 58 °F 66% 29.99 in 12 mi NNW 9.2 mph - -   Clear
1:00 PM 66.2 °F 55.4 °F 68% 29.98 in - NNW 6.9 mph - N/A   Clear
1:30 PM 68.0 °F 55.4 °F 64% 29.98 in - NNW 5.8 mph - N/A   Clear
2:00 PM 68.0 °F 53.6 °F 60% 29.98 in - NNW 8.1 mph - N/A   Clear
2:30 PM 68.0 °F 53.6 °F 60% 29.95 in 6.2 mi NNW 9.2 mph - N/A   Partly Cloudy
3:00 PM 66.2 °F 51.8 °F 60% 29.95 in 6.2 mi NW 8.1 mph - N/A   Partly Cloudy
3:30 PM 66.2 °F 51.8 °F 60% 29.95 in 6.2 mi WNW 8.1 mph - N/A   Partly Cloudy
4:00 PM 62.6 °F 53.6 °F 72% 29.95 in 6.2 mi WNW 10.4 mph - N/A   Partly Cloudy
4:30 PM 60.8 °F 53.6 °F 77% 29.95 in 6.2 mi WNW 8.1 mph - N/A   Partly Cloudy
5:00 PM 60.8 °F 51.8 °F 72% 29.95 in 6.2 mi WNW 9.2 mph - N/A   Partly Cloudy
5:30 PM 59.0 °F 50.0 °F 72% 29.92 in 6.2 mi WNW 6.9 mph - N/A   Partly Cloudy
6:00 PM 57.2 °F 48.2 °F 72% 29.95 in 6.2 mi NW 10.4 mph - N/A Rain Light Rain
6:30 PM 57.2 °F 48.2 °F 72% 29.95 in 6.2 mi NNW 5.8 mph - N/A Rain Light Rain
7:00 PM 55 °F 51 °F 80% 29.96 in 16 mi NW 2.3 mph - - Rain Light Rain
7:00 PM 55.4 °F 48.2 °F 77% 29.95 in 6.2 mi Variable 1.2 mph - N/A Rain Light Rain
7:30 PM 55.4 °F 50.0 °F 82% 29.95 in 6.2 mi NW 6.9 mph - N/A   Scattered Clouds
8:00 PM 55.4 °F 50.0 °F 82% 29.95 in 6.2 mi North 4.6 mph - N/A   Scattered Clouds
8:30 PM 55.4 °F 50.0 °F 82% 29.95 in 6.2 mi Variable 2.3 mph - N/A   Scattered Clouds
9:00 PM 55.4 °F 51.8 °F 88% 29.95 in 6.2 mi Variable 1.2 mph - N/A   Scattered Clouds
9:30 PM 53.6 °F 51.8 °F 94% 29.95 in - NNW 3.5 mph - N/A   Clear
10:00 PM 53.6 °F 50.0 °F 88% 29.95 in - NW 5.8 mph - N/A   Clear
10:30 PM 53.6 °F 50.0 °F 88% 29.95 in - WNW 5.8 mph - N/A   Clear
11:00 PM 53.6 °F 50.0 °F 88% 29.95 in - NW 8.1 mph - N/A   Clear